This is the latest recevied weather packets stored in our database for station/object CA2JAT-13. If no packets are shown the sender has not sent any weather packets the latest 1 day(s).
| Time | Temp. | Humidity | Pressure | Rain* | Wind** | Luminosity | Snow |
|---|---|---|---|---|---|---|---|
| 1778004443 | 22.22° C | 36% | 1014.1 hPa | 0 mm | 3.13 m/s, 270° | 707 W/m² | - |
| 1778000838 | 22.78° C | 31% | 1014.3 hPa | 0 mm | 1.79 m/s, 259° | 682 W/m² | - |
| 1777999036 | 22.22° C | 31% | 1014.5 hPa | 0 mm | 1.34 m/s, 271° | 652 W/m² | - |
| 1777997233 | 20.56° C | 33% | 1015.5 hPa | 0 mm | 1.34 m/s, 266° | 622 W/m² | - |
| 1777995430 | 19.44° C | 35% | 1016.1 hPa | 0 mm | 0 m/s | 571 W/m² | - |
| 1777993627 | 17.22° C | 39% | 1016.9 hPa | 0 mm | 0.45 m/s, 234° | 512 W/m² | - |
| 1777991825 | 16.11° C | 43% | 1017.3 hPa | 0 mm | 0 m/s | 441 W/m² | - |
| 1777990021 | 15.56° C | 43% | 1017.5 hPa | 0 mm | 0 m/s | 362 W/m² | - |
| 1777988219 | 15° C | 42% | 1017.6 hPa | 0 mm | 0 m/s | 323 W/m² | - |
| 1777986384 | 9.44° C | 55% | 1019.5 hPa | 0 mm | 0.45 m/s, 79° | 85 W/m² | - |
| 1777984587 | 6.67° C | 66% | 1019.9 hPa | 0 mm | 0.89 m/s, 66° | 101 W/m² | - |
| 1777982779 | 6.67° C | 66% | 1019 hPa | 0 mm | 0.89 m/s, 47° | 7 W/m² | - |
| 1777980976 | 6.67° C | 66% | 1018.8 hPa | 0 mm | 1.34 m/s, 52° | 0 W/m² | - |
| 1777977371 | 6.67° C | 65% | 1017.8 hPa | 0 mm | 0.45 m/s, 22° | 0 W/m² | - |
| 1777975568 | 7.22° C | 61% | 1017 hPa | 0 mm | 0.89 m/s, 56° | 0 W/m² | - |
| 1777973765 | 7.22° C | 63% | 1017.1 hPa | 0 mm | 1.34 m/s, 55° | 0 W/m² | - |
| 1777971962 | 7.78° C | 61% | 1016.9 hPa | 0 mm | 0.89 m/s, 43° | 0 W/m² | - |
| 1777970160 | 7.78° C | 60% | 1017.1 hPa | 0 mm | 0.89 m/s, 70° | 0 W/m² | - |
| 1777968358 | 8.33° C | 58% | 1016.9 hPa | 0 mm | 1.34 m/s, 46° | 0 W/m² | - |
| 1777966548 | 8.33° C | 59% | 1017.1 hPa | 0 mm | 0.45 m/s, 43° | 0 W/m² | - |
* Rain latest hour (hover to see other rain measurements)
** Current wind speed in m/s (hover to see current wind gust speed)